HULIANWANG DIGUI 12C

Last updated on Mon Oct 20 2025 00:02:08 GMT+0000 (Coordinated Universal Time)

1 65997U 25231C 25291.38456333 -.00000110 00000+0 25766-4 0 9995 2 65997 49.9979 348.3658 0007531 265.6859 94.3186 14.05621713 336
UTC large
Height (km)
Speed (km/s)
/
Latitude / Longitude
Inclination (degrees)
Orbital Period (minutes)
Azimuth
Elevation
Range (km)
Doppler Factor

Next 0 passes for location: London (51.5072 / 0.1276)

Sorry there are no passes over London.